Location: Sungai Dangang
(2.7500°N, 113.8333°E)
Time: 21:01:38
(UTC+00:00)

Ariane H10+ - Visible Passes

Search period start: 19 September 2021 00:00
Search period end: 29 September 2021 00:00
Orbit: 250 x 24319 km, 6.6° (Epoch: 19 September)

Date Brightness Start Highest point End Pass type
(mag) Time Alt. Az. Time Alt. Az. Time Alt. Az.
19 Sep 5.0 13:05:00 10° W 13:26:46 40° SW 13:26:46 40° SW visible
19 Sep 4.1 20:53:18 33° W 20:57:20 88° N 01:24:11 10° E visible
22 Sep 4.8 06:35:45 10° W 11:49:49 61° SSW 11:55:25 31° SE visible
22 Sep 4.5 19:21:50 45° E 19:21:50 45° E 19:35:49 10° E visible
24 Sep 4.8 12:50:11 10° W 13:14:57 44° SW 13:14:57 44° SW visible
24 Sep 3.9 20:41:18 40° W 20:44:37 85° N 22:11:13 10° E visible
26 Sep 6.3 14:33:48 10° WSW 14:34:05 10° WSW 14:34:05 10° WSW visible
27 Sep 4.9 06:16:20 10° W 11:35:33 62° SSW 11:42:08 25° ESE visible
27 Sep 4.8 19:08:22 37° E 19:08:22 37° E 19:19:56 10° E visible
